Location: Newark
(41.9000°N, 12.4833°E)
Time: 08:59:45
(UTC+00:00)

EO-88 - Pass Details

Date: 31 May 2019
Orbit: 484 x 494 km, 97.4° (Epoch: 19 June)

Event Time Altitude Azimuth Distance (km) Brightness Sun altitude
Exits shadow 20:42:19 44° 166° (SSE) 691 ? -17.8°
Maximum altitude 20:43:24 89° 70° (ENE) 500 ? -17.9°
Drops below altitude 10° 20:47:04 10° 348° (NNW) 1,699 ? -18.3°
Sets 20:49:09 0° 349° (NNW) 2,586 ? -18.5°
